When you browse on this site, cookies collect data to enhance your experience and personalize the content and advertising you see.
Visit our Privacy Policy to learn more. By continuing to use the site, you agree to this use of cookies and data.
  • In Österreich
  • Länderverzeichnis
  • Für 7 Tage
  • Wassertemperatur
  • Wetterkarte
  • News
  • Widgets
  • user-avatar
    Anmelden

    Stündliche Wetter Baraki Barak

    Heute, 31 Mai, Sonntag

    Zeit Temperatur Niederschläge Wind Luftdruck Luftfeuchtigkeit
    00:00 +21°C° 0 mm 1 m/S 599 mmHg 34%
    01:00 +20°C° 0 mm 1 m/S 599 mmHg 36%
    02:00 +19°C° 0 mm 1 m/S 599 mmHg 38%
    03:00 +19°C° 0 mm 1 m/S 598 mmHg 40%
    04:00 +18°C° 0 mm 1 m/S 598 mmHg 41%
    05:00 +18°C° 0 mm 1 m/S 598 mmHg 43%
    06:00 +19°C° 0 mm 1 m/S 598 mmHg 39%
    07:00 +20°C° 0 mm 1 m/S 599 mmHg 36%
    08:00 +20°C° 0 mm 1 m/S 600 mmHg 33%
    09:00 +22°C° 0 mm 1 m/S 600 mmHg 30%
    10:00 +23°C° 0 mm 2 m/S 600 mmHg 26%
    11:00 +24°C° 0 mm 2 m/S 600 mmHg 22%
    12:00 +25°C° 0 mm 2 m/S 600 mmHg 20%
    13:00 +26°C° 0 mm 2 m/S 600 mmHg 17%
    14:00 +27°C° 0 mm 2 m/S 600 mmHg 14%
    15:00 +27°C° 0 mm 3 m/S 600 mmHg 14%
    16:00 +27°C° 0 mm 3 m/S 600 mmHg 14%
    17:00 +28°C° 0 mm 4 m/S 600 mmHg 14%
    18:00 +27°C° 0 mm 4 m/S 600 mmHg 16%
    19:00 +26°C° 0 mm 4 m/S 599 mmHg 18%
    20:00 +25°C° 0 mm 5 m/S 599 mmHg 20%
    21:00 +24°C° 0 mm 3 m/S 599 mmHg 25%
    22:00 +23°C° 0 mm 2 m/S 600 mmHg 30%
    23:00 +22°C° 0 mm 1 m/S 600 mmHg 34%

    Morgen, 1 Juni, Montag

    Zeit Temperatur Niederschläge Wind Luftdruck Luftfeuchtigkeit
    00:00 +21°C° 0 mm 1 m/S 599 mmHg 36%
    01:00 +20°C° 0 mm 1 m/S 599 mmHg 37%
    02:00 +20°C° 0 mm 1 m/S 599 mmHg 38%
    03:00 +19°C° 0 mm 1 m/S 598 mmHg 40%
    04:00 +18°C° 0 mm 1 m/S 598 mmHg 41%
    05:00 +16°C° 0 mm 0 m/S 598 mmHg 42%
    06:00 +19°C° 0 mm 1 m/S 598 mmHg 39%
    07:00 +20°C° 0 mm 1 m/S 599 mmHg 35%
    08:00 +21°C° 0 mm 1 m/S 600 mmHg 31%
    09:00 +22°C° 0 mm 1 m/S 600 mmHg 28%
    10:00 +23°C° 0 mm 1 m/S 601 mmHg 25%
    11:00 +24°C° 0 mm 1 m/S 601 mmHg 22%
    12:00 +25°C° 0 mm 2 m/S 601 mmHg 19%
    13:00 +27°C° 0 mm 2 m/S 601 mmHg 16%
    14:00 +28°C° 0 mm 2 m/S 601 mmHg 14%
    15:00 +28°C° 0 mm 3 m/S 601 mmHg 13%
    16:00 +28°C° 0 mm 3 m/S 601 mmHg 13%
    17:00 +28°C° 0 mm 4 m/S 600 mmHg 13%
    18:00 +27°C° 0 mm 5 m/S 600 mmHg 14%
    19:00 +25°C° 0 mm 5 m/S 600 mmHg 15%
    20:00 +23°C° 0 mm 6 m/S 600 mmHg 17%
    21:00 +22°C° 0 mm 4 m/S 600 mmHg 19%
    22:00 +21°C° 0 mm 3 m/S 599 mmHg 22%
    23:00 +21°C° 0 mm 1 m/S 599 mmHg 24%

    übermorgen, 2 Juni, Dienstag

    Zeit Temperatur Niederschläge Wind Luftdruck Luftfeuchtigkeit
    00:00 +21°C° 0 mm 1 m/S 599 mmHg 25%
    01:00 +20°C° 0 mm 1 m/S 599 mmHg 26%
    02:00 +19°C° 0 mm 1 m/S 598 mmHg 26%
    03:00 +19°C° 0 mm 1 m/S 598 mmHg 27%
    04:00 +18°C° 0 mm 1 m/S 598 mmHg 28%
    05:00 +16°C° 0 mm 1 m/S 597 mmHg 29%
    06:00 +19°C° 0 mm 1 m/S 598 mmHg 26%
    07:00 +20°C° 0 mm 1 m/S 599 mmHg 22%
    08:00 +21°C° 0 mm 1 m/S 600 mmHg 19%
    09:00 +22°C° 0 mm 1 m/S 600 mmHg 17%
    10:00 +24°C° 0 mm 1 m/S 600 mmHg 15%
    11:00 +25°C° 0 mm 2 m/S 600 mmHg 13%
    12:00 +26°C° 0 mm 2 m/S 600 mmHg 12%
    13:00 +26°C° 0 mm 2 m/S 600 mmHg 11%
    14:00 +27°C° 0 mm 2 m/S 600 mmHg 10%
    15:00 +28°C° 0 mm 2 m/S 600 mmHg 10%
    16:00 +28°C° 0 mm 3 m/S 600 mmHg 10%
    17:00 +28°C° 0 mm 3 m/S 600 mmHg 9%
    18:00 +27°C° 0 mm 3 m/S 600 mmHg 12%
    19:00 +26°C° 0 mm 4 m/S 599 mmHg 14%
    20:00 +25°C° 0 mm 4 m/S 599 mmHg 17%
    21:00 +24°C° 0 mm 3 m/S 599 mmHg 19%
    22:00 +22°C° 0 mm 3 m/S 599 mmHg 21%
    23:00 +21°C° 0 mm 2 m/S 599 mmHg 23%

    3 Juni, Mittwoch

    Zeit Temperatur Niederschläge Wind Luftdruck Luftfeuchtigkeit
    00:00 +21°C° 0 mm 2 m/S 599 mmHg 24%
    01:00 +21°C° 0 mm 1 m/S 598 mmHg 25%
    02:00 +20°C° 0 mm 1 m/S 598 mmHg 26%
    03:00 +20°C° 0 mm 1 m/S 597 mmHg 27%
    04:00 +19°C° 0 mm 1 m/S 597 mmHg 28%
    05:00 +18°C° 0 mm 1 m/S 597 mmHg 30%
    06:00 +19°C° 0 mm 1 m/S 598 mmHg 26%
    07:00 +21°C° 0 mm 1 m/S 598 mmHg 23%
    08:00 +22°C° 0 mm 1 m/S 599 mmHg 20%
    09:00 +23°C° 0 mm 1 m/S 599 mmHg 18%
    10:00 +24°C° 0 mm 2 m/S 599 mmHg 16%
    11:00 +25°C° 0 mm 2 m/S 599 mmHg 15%
    12:00 +26°C° 0 mm 2 m/S 599 mmHg 13%
    13:00 +27°C° 0 mm 2 m/S 599 mmHg 12%
    14:00 +28°C° 0 mm 3 m/S 599 mmHg 10%
    15:00 +28°C° 0 mm 3 m/S 599 mmHg 11%
    16:00 +28°C° 0 mm 4 m/S 599 mmHg 11%
    17:00 +28°C° 0 mm 5 m/S 599 mmHg 12%
    18:00 +27°C° 0 mm 5 m/S 599 mmHg 14%
    19:00 +26°C° 0 mm 4 m/S 598 mmHg 16%
    20:00 +25°C° 0 mm 4 m/S 598 mmHg 17%
    21:00 +23°C° 0 mm 4 m/S 598 mmHg 19%
    22:00 +22°C° 0 mm 3 m/S 598 mmHg 21%
    23:00 +21°C° 0 mm 2 m/S 598 mmHg 23%

    4 Juni, Donnerstag

    Zeit Temperatur Niederschläge Wind Luftdruck Luftfeuchtigkeit
    00:00 +21°C° 0 mm 2 m/S 598 mmHg 24%
    01:00 +21°C° 0 mm 1 m/S 597 mmHg 26%
    02:00 +20°C° 0 mm 1 m/S 597 mmHg 28%
    03:00 +19°C° 0 mm 1 m/S 597 mmHg 29%
    04:00 +19°C° 0 mm 1 m/S 597 mmHg 30%
    05:00 +18°C° 0 mm 1 m/S 596 mmHg 30%
    06:00 +20°C° 0 mm 1 m/S 597 mmHg 27%
    07:00 +20°C° 0 mm 2 m/S 598 mmHg 24%
    08:00 +21°C° 0 mm 2 m/S 598 mmHg 21%
    09:00 +23°C° 0 mm 2 m/S 599 mmHg 19%
    10:00 +25°C° 0 mm 3 m/S 599 mmHg 18%
    11:00 +26°C° 0 mm 3 m/S 600 mmHg 16%
    12:00 +26°C° 0 mm 4 m/S 600 mmHg 15%
    13:00 +27°C° 0 mm 4 m/S 600 mmHg 14%
    14:00 +28°C° 0 mm 4 m/S 599 mmHg 14%
    15:00 +28°C° 0 mm 4 m/S 599 mmHg 14%
    16:00 +29°C° 0 mm 4 m/S 599 mmHg 14%
    17:00 +29°C° 0 mm 4 m/S 599 mmHg 14%
    18:00 +28°C° 0 mm 4 m/S 599 mmHg 15%
    19:00 +27°C° 0 mm 4 m/S 599 mmHg 17%
    20:00 +26°C° 0 mm 4 m/S 599 mmHg 18%
    21:00 +25°C° 0 mm 4 m/S 599 mmHg 20%
    22:00 +24°C° 0 mm 3 m/S 599 mmHg 22%
    23:00 +22°C° 0 mm 3 m/S 599 mmHg 24%

    5 Juni, Freitag

    Zeit Temperatur Niederschläge Wind Luftdruck Luftfeuchtigkeit
    00:00 +21°C° 0 mm 2 m/S 599 mmHg 25%
    01:00 +20°C° 0 mm 2 m/S 598 mmHg 27%
    02:00 +20°C° 0 mm 2 m/S 598 mmHg 28%
    03:00 +19°C° 0 mm 2 m/S 598 mmHg 29%
    04:00 +18°C° 0 mm 2 m/S 597 mmHg 30%
    05:00 +19°C° 0 mm 1 m/S 597 mmHg 31%
    06:00 +20°C° 0 mm 1 m/S 598 mmHg 28%
    07:00 +21°C° 0 mm 1 m/S 598 mmHg 25%
    08:00 +23°C° 0 mm 1 m/S 599 mmHg 23%
    09:00 +24°C° 0 mm 2 m/S 599 mmHg 21%
    10:00 +25°C° 0 mm 2 m/S 600 mmHg 19%
    11:00 +27°C° 0 mm 3 m/S 600 mmHg 17%
    12:00 +28°C° 0 mm 4 m/S 600 mmHg 15%
    13:00 +29°C° 0 mm 4 m/S 600 mmHg 14%
    14:00 +30°C° 0 mm 5 m/S 600 mmHg 12%
    15:00 +30°C° 0 mm 6 m/S 600 mmHg 12%
    16:00 +31°C° 0 mm 8 m/S 600 mmHg 12%
    17:00 +31°C° 0 mm 9 m/S 599 mmHg 11%
    18:00 +29°C° 0 mm 8 m/S 599 mmHg 14%
    19:00 +27°C° 0 mm 6 m/S 599 mmHg 16%
    20:00 +26°C° 0 mm 5 m/S 599 mmHg 18%
    21:00 +25°C° 0 mm 4 m/S 599 mmHg 20%
    22:00 +23°C° 0 mm 4 m/S 599 mmHg 23%
    23:00 +22°C° 0 mm 3 m/S 599 mmHg 25%
    Mehr zeigen